Location: Palombina Nuova
(43.6167°N, 13.4000°E)
Time: 10:30:35
(UTC+00:00)

Cosmos 2369 Rocket - Pass Details

Date: 17 February 2020
Orbit: 827 x 854 km, 71.0° (Epoch: 29 March)

Event Time Altitude Azimuth Distance (km) Brightness Sun altitude
Exits shadow 03:07:32 - 348° (NNW) 3,001 5.1 -32.2°
Reaches altitude 10° 03:09:12 10° 357° (N) 2,492 4.7 -32.0°
Maximum altitude 03:13:47 24° 50° (NE) 1,701 4.3 -31.1°
Drops below altitude 10° 03:18:20 10° 104° (ESE) 2,483 5.4 -30.3°
Sets 03:21:16 0° 118° (ESE) 3,414 6.0 -29.8°
